Location: Rounton
(54.4000°N, 1.3500°W)
Time: 13:23:55
(UTC+01:00)

ISS - Visible Passes

Search period start: 23 October 2021 00:00
Search period end: 01 November 2021 23:00
Orbit: 417 x 423 km, 51.6° (Epoch: 23 October)

Date Brightness Start Highest point End Pass type
(mag) Time Alt. Az. Time Alt. Az. Time Alt. Az.
23 Oct -1.1 06:50:45 10° SSW 06:53:06 18° SSE 06:55:28 10° ESE visible
24 Oct -0.9 06:04:24 10° S 06:06:05 13° SE 06:07:45 10° ESE visible
25 Oct -2.0 06:52:07 10° SW 06:55:06 30° SSE 06:58:06 10° E visible
26 Oct -1.7 06:05:52 14° SSW 06:07:59 24° SSE 06:10:46 10° E visible
27 Oct -1.5 05:20:47 18° SSE 05:20:54 18° SSE 05:23:17 10° ESE visible
27 Oct -2.8 06:53:58 10° WSW 06:57:12 44° SSE 07:00:26 10° E visible
28 Oct -2.6 06:08:36 25° SSW 06:10:00 37° SSE 06:13:09 10° E visible
29 Oct -2.1 05:23:22 28° SE 05:23:22 28° SE 05:25:50 10° E visible
29 Oct -3.2 06:56:21 12° WSW 06:59:19 53° S 07:02:37 10° E visible
30 Oct -0.5 04:38:04 12° ESE 04:38:04 12° ESE 04:38:28 10° E visible
30 Oct -3.2 06:11:02 35° SW 06:12:04 50° S 06:15:22 10° E visible
31 Oct -2.3 04:25:42 35° SE 04:25:42 35° SE 04:28:05 10° E visible
31 Oct -3.2 05:58:41 14° W 06:01:25 50° S 06:04:42 10° ESE visible
01 Nov -0.5 03:40:20 13° E 03:40:20 13° E 03:40:46 10° E visible
01 Nov -3.4 05:13:19 40° SW 05:14:09 53° S 05:17:28 10° ESE visible
